User: anonymous
Location: Unspecified
(0.0000°N, 0.0000°E)
Time: 20:58:10
(UTC+02:00)
Language:

CZ-4B R/B - Orbit

View from above orbital plane
View from above orbital plane
View from above satellite
View from above satellite

Ground track
Ground track

The orbit data is extracted from the following two-line orbital elements,

1 33410U 08053C   14106.13441999  .00003390  00000-0  27641-3 0  7805
2 33410 097.5798 085.6923 0133134 113.1303 248.4011 14.93376936297580
Epoch (UTC): 16 April 2014 03:13:33
Eccentricity: 0.0133134
inclination: 97.5798°
perigee height: 494 km
apogee height: 680 km
right ascension of ascending node: 85.6923°
argument of perigee: 113.1303°
revolutions per day: 14.93376936
mean anomaly at epoch: 248.4011°
orbit number at epoch: 29758

The dashed part of the orbit path shows where the satellite is in the earth's shadow,  

DLR